{"data":{"norad_id":53648,"epoch":"2026-09-20T14:02:16.104768Z","epoch_age_seconds":74338,"freshness":"FRESH","line1":"1 53648U 22105A   26263.58490862  .00000194  00000+0  17331-4 0  9999","line2":"2 53648  97.2847 137.4167 0002286  87.8702 272.2787 15.05654411222568","mean_motion":15.05654411,"eccentricity":0.0002286,"inclination_deg":97.2847,"raan_deg":137.4167,"arg_perigee_deg":87.8702,"mean_anomaly_deg":272.2787,"bstar":1.7331e-5,"rev_number":22256,"period_min":95.639476727173,"perigee_km":547.91396649196,"apogee_km":551.08128104195,"semimajor_km":6927.634623767,"source":"CELESTRAK","updated_at":"2026-09-21T09:00:32.948472Z"}}